Voltar ao catálogo

STARLINK-4337

AtivoComunicaçõesSSO
NORAD 53053·PAYLOAD·🇺🇸 United States

Lançado Jul 11, 2022 de Vandenberg Space Force Base

Loading…

Próximas Passagens (próximas 24 horas)

TLE

AtualizadoSource: CelesTrak SupGP

Época: Sep 14, 2026, 21:58 UTC

1 53053C 22077L   26257.91576389  .00073245  00000+0  22734-2 0  2571
2 53053  97.2856  72.8615 0001728 100.5641  55.6641 15.33405323    16

Acompanhe STARLINK-4337 em tempo real com AllMySat

Download on the App Store